Home   Weather   Oberhausen   Past weeks

Flag for Germany Past Weather in Oberhausen, North Rhine-Westphalia, Germany — Yesterday and Last 2 Weeks

48 °F

Passing clouds.

Feels Like: 48 °F
Forecast: 44 / 59 °F
Wind: 2 mph from North

Location: Duesseldorf

Current Time: Oct 26, 2016 at 2:26:39 AM

Latest Report: Oct 26, 2016 at 1:50 AM

Visibility: N/A

Pressure: 30.33 "Hg

Humidity: 94%

Dew Point: 46 °F

Location of OberhausenLocation

Past Weather in Oberhausen — Graph


Oberhausen Temperature Yesterday

Maximum temperature yesterday: 50 °F (at 12:20 AM)
Minimum temperature yesterday: 48 °F (at 7:20 AM)
Average temperature yesterday: 49 °F

High & Low Weather Summary for the Past Weeks

High66 °F (Oct 16, 2:20 PM)100% (Oct 11, 12:50 AM)30.33 "Hg (Oct 11, 12:50 AM)
Low32 °F (Oct 23, 6:20 AM)52% (Oct 16, 2:20 PM)29.65 "Hg (Oct 15, 1:20 AM)
Average49 °F88%30.00 "Hg
* Reported Oct 11 12:20 AM — Oct 26 12:50 AM, Oberhausen, Weather by CustomWeather, © 2016

Note: Actual official high and low records may vary slightly from our data, if they occured in-between our weather recording intervals... More about our weather records


Oberhausen Weather History for the Previous 24 Hours

Scroll right to see more
Time TempWeatherWind HumidityBarometerVisibility
12:50 AM
Wed, Oct 26
48 °FPassing clouds.2 mph94%30.33 "HgN/A
12:20 AM48 °FPassing clouds.2 mph94%30.33 "Hg6 mi
11:50 PM
Tue, Oct 25
48 °FPassing clouds.2 mph94%30.33 "Hg5 mi
11:20 PM48 °FPassing clouds.2 mph94%30.33 "Hg5 mi
10:50 PM48 °FPartly cloudy.5 mph94%30.33 "HgN/A
10:20 PM48 °FPartly cloudy.2 mph94%30.33 "HgN/A
9:50 PM48 °FPartly cloudy.5 mph94%30.33 "HgN/A
9:20 PM48 °FPartly cloudy.2 mph94%30.30 "HgN/A
8:50 PM48 °FOvercast.1 mph94%30.30 "HgN/A
8:20 PM48 °FLow clouds.3 mph94%30.30 "HgN/A
7:50 PM48 °FLow clouds.3 mph94%30.30 "HgN/A
7:20 PM48 °FLow clouds.2 mph94%30.30 "HgN/A
6:50 PM50 °FLow clouds.3 mph88%30.27 "HgN/A
6:20 PM50 °FPartly cloudy.5 mph88%30.27 "Hg6 mi
5:50 PM50 °FBroken clouds.3 mph88%30.27 "Hg5 mi
5:20 PM50 °FPartly sunny.3 mph94%30.27 "Hg5 mi
4:50 PM50 °FPartly sunny.2 mph94%30.24 "Hg5 mi
4:20 PM50 °FPartly sunny.3 mph94%30.24 "Hg5 mi
3:50 PM50 °FPartly sunny.3 mph94%30.24 "Hg4 mi
3:20 PM50 °FPartly sunny.5 mph94%30.24 "Hg4 mi
2:50 PM50 °FFog.5 mph94%30.24 "Hg3 mi
2:20 PM50 °FFog.3 mph94%30.21 "Hg3 mi
1:50 PM48 °FFog.3 mph100%30.21 "Hg3 mi
1:20 PM48 °FLow clouds.2 mph100%30.21 "Hg4 mi
12:50 PM48 °FFog.3 mph100%30.21 "Hg2 mi
12:20 PM48 °FFog.5 mph94%30.21 "Hg2 mi
11:50 AM48 °FDrizzle. Fog.6 mph100%30.21 "Hg2 mi
11:20 AM48 °FDrizzle. Fog.6 mph100%30.18 "Hg2 mi
10:50 AM48 °FFog.6 mph100%30.18 "Hg3 mi
10:20 AM48 °FMostly cloudy.7 mph100%30.18 "Hg4 mi
9:50 AM48 °FFog.6 mph100%30.15 "Hg3 mi
9:20 AM48 °FFog.7 mph100%30.15 "Hg3 mi
8:50 AM48 °FFog.6 mph100%30.15 "Hg3 mi
8:20 AM48 °FFog.7 mph100%30.12 "Hg3 mi
7:50 AM48 °FDrizzle. Mostly cloudy.8 mph100%30.12 "Hg4 mi
7:20 AM48 °FDrizzle. Fog.7 mph100%30.09 "Hg2 mi
6:50 AM50 °FDrizzle. Fog.7 mph94%30.09 "Hg2 mi
6:20 AM50 °FDrizzle. Fog.7 mph100%30.07 "Hg2 mi
5:50 AM50 °FDrizzle. Fog.7 mph100%30.07 "Hg2 mi
5:20 AM50 °FDrizzle. Fog.7 mph100%30.07 "Hg2 mi
4:50 AM50 °FFog.5 mph100%30.04 "Hg2 mi
4:20 AM50 °FFog.7 mph100%30.04 "Hg2 mi
3:50 AM50 °FFog.5 mph100%30.04 "Hg2 mi
3:20 AM50 °FFog.3 mph100%30.04 "Hg1 mi
2:50 AM50 °FFog.3 mph100%30.01 "Hg1 mi
2:20 AM50 °FFog.2 mph100%30.01 "Hg2 mi
Weather by CustomWeather, © 2016

See weather overviewHow to use our weather pages